Location: Baili�vre
(50.0696°N, 4.2409°E)
Time: 02:47:37
(UTC+00:00)

SL-16 R/B - Pass Details

Date: 08 August 2020
Orbit: 843 x 845 km, 71.0° (Epoch: 25 September)

Event Time Altitude Azimuth Distance (km) Brightness Sun altitude
Rises 19:48:33 0° 332° (NNW) 3,416 6.6 -5.7°
Reaches altitude 10° 19:51:47 10° 351° (N) 2,479 5.3 -6.1°
Maximum altitude 19:55:45 19° 35° (NE) 1,919 4.1 -6.7°
Drops below altitude 10° 19:59:43 10° 80° (E) 2,472 4.2 -7.2°
Enters shadow 20:01:45 - 93° (E) 3,044 4.6 -7.5°
